Regional Weather Roundup
Issued by NWS Pendleton, OR

Home | Current Version | Previous Version | Text Only | Print | Product List | Glossary On
Versions: 1 2 3 4 5 6 7 8 9 10 11 12 13 14 15 16 17 18 19 20 21 22 23 24 25 26 27 28 29 30 31 32 33 34 35 36 37 38 39 40 41 42 43 44 45 46 47 48 49 50
000
ASUS46 KPDT 240725
RWRPDT
PENDLETON REGIONAL WEATHER ROUNDUP
NATIONAL WEATHER SERVICE PENDLETON OREGON
1200 AM PDT TUE OCT 24 2017

NOTE: FAIR INDICATES FEW OR NO CLOUDS BELOW 12,000 FEET WITH NO
SIGNIFICANT WEATHER AND/OR OBSTRUCTIONS TO VISIBILITY.

# INDICATES UNOFFICIAL STATION AND DATA

WAZ520-240810-
EAST SLOPES OF WASHINGTON CASCADES

CITY            SKY/WX      TMP DP  RH  WIND    PRES   REMARKS
#BULLFROG       N/A         36  36  100 CALM    N/A
#CLE ELUM HS    N/A         35  34  96  CALM    30.60F
#CLE ELUM LAKE  N/A         43  38  82  CALM    30.68F
#EASTON DOT     N/A         37  37  100 CALM    N/A
#ELK HTS DOT    N/A         39  38  96  CALM    N/A
#GLENWOOD       N/A         33  32  96  CALM    30.71S
#NELSON 3SW     N/A         38  36  92  CALM    30.93S
#NILE           N/A         35  34  96  CALM    29.98F
#TEANAWAY 4NE   N/A         36  35  96  CALM    N/A
#TROUT LAKE 1NE N/A         39  37  92  CALM    30.70F
#TROUT LAKE 1E  N/A         33  31  92  CALM    30.70S
$$

WAZ521-240810-
SIMCOE HIGHLANDS

CITY            SKY/WX      TMP DP  RH  WIND    PRES   REMARKS
#BICKLETON HS   N/A         44  39  82  NW5     30.64F
#CENTERVILLE 1SWN/A         40  36  85  CALM    30.65F
#GOLDENDALE 1NE N/A         42  30  62  N5      N/A
#GOLDENDALE 4W  N/A         39  29  67  CALM    30.67F
#GOODNOE HILLS  N/A         49  41  74  NE3     N/A
#LYLE 6NE       N/A         46  42  86  N6      30.66F
#PITT 4SE       N/A         43  38  82  NE2     30.69F
$$

WAZ026-240810-
KITTITAS VALLEY

CITY            SKY/WX      TMP DP  RH  WIND    PRES   REMARKS
ELLENSBURG AP   CLEAR       38  32  79  E3      30.68F
#ELLENSBURG CWU N/A         40  36  85  CALM    30.63F
#ELLENSBURG 3NE N/A         36  32  85  CALM    28.72F
#ELLENSBURG 1E  N/A         36  33  89  CALM    30.74S
#KITTITAS 3S    N/A         32  30  92  CALM    30.69F
#MANASTASH RDG  N/A         47  47  100 SE2     N/A
#ROCKY CYN DOT  N/A         39  38  96  W3      N/A
#RYEGRASS DOT   N/A         45  34  65  CALM    N/A
$$

WAZ027-240810-
YAKIMA VALLEY

CITY            SKY/WX      TMP DP  RH  WIND    PRES   REMARKS
SUNNYSIDE AP    CLEAR       37  35  92  CALM    30.69F
YAKIMA AIRPORT  CLEAR       40  37  89  W6      30.69F
YAKIMA-VAGABOND CLEAR       41  35  79  CALM    30.66F
#DONALD 2NE     N/A         50  23  34  NW3     30.69F
#GRANDVIEW      N/A         42  37  82  CALM    30.64F
#MABTON         N/A         41  37  86  CALM    30.68F
#MOXEE 2E       N/A         41  N/A N/A NE1     30.63S
#NACHES 2SW     N/A         45  41  86  W1      30.68R
#OUTLOOK DOT    N/A         42  40  93  CALM    30.65F
#PARKER DOT     N/A         48  39  71  S3      30.67F
#TERRACE HTS    N/A         41  37  86  CALM    30.67S
#TOPPENISH      N/A         42  39  89  CALM    30.62S
#I82 S UMTANUM RN/A         42  31  65  N6      N/A
#UNION GAP DOT  N/A         41  38  89  N1      30.72F
#W YAKIMA       N/A         43  38  82  N1      30.69F
#WHITE SWAN 5E  N/A         40  38  92  CALM    30.70F
#WILEY CITY 3W  N/A         44  35  70  CALM    30.64F
#ZILLAH DOT     N/A         43  38  82  NE1     N/A
$$

WAZ028-240810-
LOWER COLUMBIA BASIN...WASHINGTON

CITY            SKY/WX      TMP DP  RH  WIND    PRES   REMARKS
HANFORD         CLEAR       48  40  74  NW6     30.68S
PASCO           CLEAR       41  39  93  N5      30.69F
PROSSER AWOS    N/A         37  37  100 CALM    30.72S
RICHLAND AWOS   CLEAR       42  41  96  CALM    30.69F
#BENTON CITY    N/A         46  40  79  CALM    30.60S
#CONNELL 5N     N/A         40  37  89  CALM    30.68F
#CONNELL 5NW    N/A         42  38  86  CALM    30.63F
#ELTOPIA 6NW    N/A         46  41  83  CALM    29.62F
#KAHLOTUS       N/A         43  38  82  S6      30.68F
#KENNEWICK 3S   N/A         49  43  80  CALM    30.68F
#PROSSER DOT    N/A         42  40  93  CALM    30.69S
#SAGEMOOR 2W    N/A         47  41  79  CALM    30.55S
#TOUCHET 2S     N/A         40  37  89  CALM    30.66F
#WEST PASCO     N/A         41  38  89  CALM    30.74F
$$

WAZ029-240810-
FOOTHILLS OF THE BLUES...WASHINGTON

CITY            SKY/WX      TMP DP  RH  WIND    PRES   REMARKS
WALLA WALLA AP  CLEAR       48  40  74  SE3     30.67S
#CLYDE 6NW      N/A         44  39  82  CALM    30.68S
#DAYTON SCHOOL  N/A         44  34  68  N1      30.66S
#DELANEY DOT    N/A         37  35  92  SE1     30.70S
#LOWDEN 2SE     N/A         41  39  93  CALM    30.64F
#PLEASANT VIEW 1N/A         46  40  79  CALM    30.71F
#PRESCOTT       N/A         45  40  82  CALM    30.67F
#WHITMAN COLLEGEN/A         49  42  77  CALM    30.72S
#WAITSBURG 6SSE N/A         44  36  73  S2      30.67S
#WALLA WALLA 5E N/A         45  39  79  E2      N/A
#WHITMAN MISSIONN/A         42  39  89  CALM    30.69S
$$

WAZ030-240810-
BLUE MOUNTAINS...WASHINGTON

CITY            SKY/WX      TMP DP  RH  WIND    PRES   REMARKS
#DIXIE 5SE      N/A         52  35  52  CALM    30.60F
$$

ORZ009-041-WAZ024-240810-
COLUMBIA RIVER GORGE

CITY            SKY/WX      TMP DP  RH  WIND    PRES   REMARKS
HOOD RIVER AP   N/A         41  41  100 CALM    30.67F
THE DALLES AP   CLEAR       46  45  96  CALM    30.67F
#ARLINGTON AIRPON/A         52  43  71  E3      30.67F
#CELILO DOT     N/A         51  41  68  S2      N/A
#LYLE           N/A         50  45  83  N5      30.68F
#MARYHILL       N/A         50  42  74  CALM    N/A
#MURDOCK        N/A         48  46  93  CALM    30.63F
#RUFUS DOT      N/A         52  N/A N/A S8      N/A
#SMITHVILLE     N/A         42  40  93  CALM    30.63S

$$

ORZ510-240810-
NORTH CENTRAL OREGON

CITY            SKY/WX      TMP DP  RH  WIND    PRES   REMARKS
#ANTELOPE       N/A         44  39  82  CALM    30.53F
#CHENOWITH 1W   N/A         49  43  80  E7      N/A
#COW CYN RST AREN/A         49  43  80  N5      N/A
#DUFUR          N/A         40  38  92  CALM    30.65F
#DUFUR 9E       N/A         51  42  71  E9      30.70F
#KENT DOT       N/A         47  38  71  E8      N/A
#MAUPIN SCHOOL  N/A         48  42  80  CALM    30.69F
#MORO SCHOOL    N/A         40  40  100 CALM    30.63F
#SHANIKO 5WSW   N/A         48   9  20  NE16    N/A    WCI 42
#SHANIKO 4NW    N/A         47  42  83  E10     30.65F
#TYGH VALLEY 2NEN/A         45  41  86  CALM    30.66S
#WAPANITIA AIRPON/A         43  40  89  CALM    30.68F
#WASCO 5NE      N/A         42  34  73  CALM    30.66F
$$

ORZ511-240810-
CENTRAL OREGON

CITY            SKY/WX      TMP DP  RH  WIND    PRES   REMARKS
BEND AIRPORT    CLEAR       43  37  79  SW5     30.67F
MADRAS AIRPORT  N/A         N/A N/A N/A SE6     30.67S FOG
PRINEVILLE AP   CLEAR       36  34  92  CALM    30.66F
REDMOND AIRPORT CLEAR       39  34  82  S7      30.65F
#ASHWOOD SCHOOL N/A         45  39  79  CALM    30.58S
#BEND 1SW       N/A         37  33  85  CALM    N/A
#BEND-AWBREY    N/A         44  40  86  CALM    30.64F
#BEND-KIM LN    N/A         40  36  85  SW2     30.61F
#CULVER         N/A         40  36  85  CALM    30.52F
#CULVER 8W      N/A         42  41  96  CALM    30.58F
#LAKE BILLY CHINN/A         45  N/A N/A CALM    30.68F
#MADRAS 4S      N/A         41  22  46  S6      N/A
#POWELL BUTTE   N/A         47  40  76  CALM    30.53F
#PRINEVILLE     N/A         42  37  82  CALM    30.75S
#PRINEVILLE 3N  N/A         40  35  82  CALM    30.66F
#WARM SPRINGS   N/A         48  42  80  CALM    30.50F

$$


ORZ509-240810-
EAST SLOPES OF OREGON CASCADES

CITY            SKY/WX      TMP DP  RH  WIND    PRES   REMARKS
SISTERS AWOS    N/A         36  34  92  CALM    N/A
#BLUE BOX PASS  N/A         44  N/A N/A CALM    N/A
#CAMP SHERMAN   N/A         34  31  89  CALM    30.72F
#LA PINE 4NW    N/A         31  27  85  CALM    30.73F
#LAVA BUTTE DOT N/A         37  33  85  NE1     N/A
#SISTERS ODOT   N/A         35  34  96  CALM    N/A
#SISTERS 3N     N/A         34  29  82  CALM    30.62S
#SUNRIVER       N/A         36  34  92  CALM    30.69F
#TUMALO 3W      N/A         50  39  66  CALM    30.50F
#WANOGA BUTTE D N/A         49  33  54  NE2     N/A

$$

ORZ044-240810-
LOWER COLUMBIA BASIN...OREGON

CITY            SKY/WX      TMP DP  RH  WIND    PRES   REMARKS
HERMISTON       CLEAR       43  41  93  S5      30.67S
#BOARDMAN SCHOOLN/A         42  40  93  CALM    30.66F
#ECHO 8SW       N/A         41  36  82  CALM    30.66F
#I-84 EX 198 DOTN/A         47  42  83  NE3     N/A
#IONE SCHOOL    N/A         42  27  55  CALM    30.68F
#UMATILLA       N/A         46  39  76  CALM    30.61S
$$

ORZ507-240810-
NORTHERN FOOTHILLS OF THE BLUES

CITY            SKY/WX      TMP DP  RH  WIND    PRES   REMARKS
PENDLETON AIRPT CLEAR       43  40  89  E8      30.66F
#ADAMS 3WNW     N/A         39  36  89  CALM    30.68S
#ATHENA         N/A         38  36  92  CALM    30.71S
#CAYUSE         N/A         47  41  79  E5      30.65F
#HELIX SCHOOL   N/A         40  36  85  CALM    30.67F
#HELIX 3N       N/A         47  40  76  CALM    30.60F
#HOLDMAN 5SE    N/A         44  39  82  CALM    30.63S
#HOLDMAN 6E     N/A         47  40  76  CALM    30.47S
#M-F GROVE ELEM N/A         46  37  71  CALM    30.62F
#M-FREEWATER 5SEN/A         49  40  71  CALM    30.63F
#PENDLETON DNTN N/A         43  34  70  CALM    30.63S
#PDT AQUATIC CTRN/A         43  36  76  CALM    30.64S
#PDT SUNRIDGE   N/A         39  37  92  CALM    30.68F
#PENDLETON 7NW  N/A         41  37  86  CALM    30.37R
#PILOT ROCK 1S  N/A         42  34  73  CALM    30.65S
#PILOT ROCK     N/A         43  36  76  CALM    30.64F
#TUTUILLA       N/A         38  34  85  CALM    30.71S
#UMAPINE 2E     N/A         39  37  92  CALM    30.64F
#WESTON SCHOOL  N/A         46  37  71  CALM    30.57F

$$

ORZ508-240810-
SOUTHERN FOOTHILLS OF THE BLUES

CITY            SKY/WX      TMP DP  RH  WIND    PRES   REMARKS
LEXINGTON       CLEAR       45  41  86  SE10    30.68F
#AJAX           N/A         49  37  63  NW6     30.74F
#FOSSIL SCHOOL  N/A         39  37  92  CALM    30.56F
#HEPPNER EOC    N/A         45  39  79  SE7     30.60F
#HEPPNER 4NE    N/A         45  39  79  E3      30.66F
#LEXINGTON 2SE  N/A         43  39  86  CALM    30.62F
#MIKKALO        N/A         43  39  86  E1      30.73F
#OLEX 4N        N/A         49  43  80  CALM    30.62F
#RUGGS 5NE      N/A         42  37  82  CALM    30.81S
#RUGGS 2SW      N/A         46  39  76  SW7     30.68F

$$

ORZ502-503-240810-
BLUE MOUNTAINS

CITY            SKY/WX      TMP DP  RH  WIND    PRES   REMARKS
MEACHAM         CLEAR       30  28  92  CALM    30.69F
#BATTLE MTN DOT N/A         40  31  70  CALM    N/A
#GRANITE        N/A         29  23  78  CALM    30.75R
#HEPPNER 15SE   N/A         38  32  79  CALM    30.63F
#LADD CYN SMT   N/A         32  31  96  CALM    N/A
#LADD CREEK ODOTN/A         37  35  92  SW1     N/A
#LONG CREEK HS  N/A         40  37  89  CALM    30.69F
#N POWDER DOT   N/A         32  32  100 NE2     N/A
#PIKES PEAK     N/A         52  32  46  CALM    27.99S
#TOLLGATE       N/A         38  35  89  CALM    30.46F
#TROY SCHOOL    N/A         40  38  92  CALM    30.61R
#UKIAH          N/A         31  29  92  CALM    30.68S
#WESTON 4E      N/A         49  39  68  E7      30.65F
$$

ORZ505-240810-
JOHN DAY BASIN

CITY            SKY/WX      TMP DP  RH  WIND    PRES   REMARKS
JOHN DAY        CLEAR       43  36  76  SE13    30.69S WCI 36
#ANTELOPE 9ESE  N/A         44  40  86  SW2     N/A
#DAYVILLE SCHOOLN/A         43  37  79  CALM    30.60S
#MITCHELL 8NW   N/A         51  38  61  CALM    30.70F
#MONUMENT HS    N/A         40  36  85  CALM    30.60S
#MT. VERNON 5SE N/A         44  34  68  CALM    30.63F
#SPRAY SCHOOL   N/A         40  N/A N/A CALM    N/A
$$

ORZ506-240810-
OCHOCO AND JOHN DAY HIGHLANDS

CITY            SKY/WX      TMP DP  RH  WIND    PRES   REMARKS
#HORSE RIDGE DO N/A         31  27  85  CALM    N/A
#PAULINA ODOT   N/A         39  35  85  CALM    N/A
#PINE MTN OBS   N/A         45  34  65  S3      N/A
#SENECA         N/A         31  N/A N/A CALM    N/A
#SENECA 9NW     N/A         29  28  96  CALM    30.76S
$$

ORZ049-240810-
GRANDE RONDE VALLEY

CITY            SKY/WX      TMP DP  RH  WIND    PRES   REMARKS
LA GRANDE       CLEAR       38  36  92  CALM    30.72S
#COVE           N/A         36  34  92  E1      30.69S
#COVE SCHOOL    N/A         36  33  89  CALM    30.67S
#COVE 6NW       N/A         37  34  89  CALM    30.74R
#ELGIN 3N       N/A         35  32  89  CALM    31.07F
#ELGIN 1E       N/A         37  32  82  CALM    N/A
#IMBLER SCHOOL  N/A         39  36  89  CALM    30.63S
#ISLAND CITY 4N N/A         48  47  96  CALM    30.54F
#UNION 1S       N/A         40  35  82  CALM    30.73S
$$

ORZ050-240810-
WALLOWA COUNTY

CITY            SKY/WX      TMP DP  RH  WIND    PRES   REMARKS
JOSEPH AIRPORT  CLEAR       36  32  85  CALM    30.72F
#ENTERPRISE HS  N/A         33  30  89  CALM    30.65S
#IMNAHA SCHOOL  N/A         40  36  85  CALM    30.70S
#IMNAHA 10S     N/A         41  35  79  S3      30.66F
#JOSEPH         N/A         37  34  89  CALM    31.05F
#JOSEPH 3N      N/A         31  29  92  CALM    30.66F
#JOSEPH 3W      N/A         38  38  100 SW3     31.04F
#LOSTINE        N/A         33  30  89  CALM    30.56S
#LOSTINE 3SE    N/A         37  32  82  W3      30.75F
#MT HOWARD 8000 N/A         43  32  65  CALM    30.77F
#PROMISE 1S     N/A         37  34  89  CALM    30.82F
#WALLOWA LAKE   N/A         36  34  92  CALM    30.73F
#WALLOWA SCHOOL N/A         31  30  96  CALM    30.64S



$$



USA.gov is the U.S. government's official web portal to all federal, state and local government web resources and services.